Queensbury, NY

6:33 PM EST on February 27, 2017 (GMT -0500)
Bennett Memorial

Weather History for KGFL - April, 2013

Change the Weather History Date:

Friday, April 19, 2013

  Actual Average Record
Temperature  
Mean Temperature 59 °F 46 °F  
Max Temperature 72 °F 59 °F 89 °F (1976)
Min Temperature 46 °F 34 °F 23 °F (1990)
Degree Days  
Heating Degree Days 6 19  
Month to date heating degree days 416 430  
Since 1 July heating degree days 6503 7093  
Cooling Degree Days 0 0  
Month to date cooling degree days 0 0  
Year to date cooling degree days 0 0  
Growing Degree Days 9 (Base 50)    
Moisture  
Dew Point 53 °F    
Average Humidity 74    
Maximum Humidity 86    
Minimum Humidity 61    
Precipitation  
Precipitation 0.92 in 0.10 in 0.92 in (2013)
Month to date precipitation 2.49 1.86  
Year to date precipitation 7.90 9.74  
Sea Level Pressure  
Sea Level Pressure 29.74 in    
Wind  
Wind Speed 13 mph (SSW)    
Max Wind Speed 30 mph    
Max Gust Speed 43 mph    
Visibility 8 miles    
Events Rain , Thunderstorm    
T = Trace of Precipitation, MM = Missing Value Source: NWS Daily Summary

Daily Weather History Graph

Daily Weather History Graph

Search for Another Location

Airport or City:

Trip Planner

Search our weather history database for the weather conditions in past years. The results will help you decide how hot, cold, wet, or windy it might be!

Date:

Astronomy

Apr. 19, 2013 Rise Set
Actual Time 6:05 AM EDT 7:42 PM EDT
Civil Twilight 5:35 AM EDT 8:12 PM EDT
Nautical Twilight 4:58 AM EDT 8:49 PM EDT
Astronomical Twilight 4:19 AM EDT 9:28 PM EDT
Moon 1:13 PM EDT (4/19) 2:30 AM EDT (4/19)
Length of Visible Light 14h 37m
Length of Day
13h 37m
First Quarter, 61% of the Moon is Illuminated
Apr 19
First Quarter
Apr 25
Full
May 2
Last Quarter
May 9
New
May 18
First Quarter

Hourly Weather History & Observations

Time (EDT) Temp. Dew Point Humidity Pressure Visibility Wind Dir Wind Speed Gust Speed Precip Events Conditions
12:53 AM 54.0 °F 46.9 °F 77% 30.00 in 10.0 mi South 15.0 mph 21.9 mph N/A   Overcast
1:53 AM 54.0 °F 48.0 °F 80% 29.98 in 10.0 mi South 12.7 mph 20.7 mph N/A   Overcast
2:53 AM 54.0 °F 48.9 °F 83% 29.95 in 10.0 mi South 12.7 mph - N/A   Overcast
3:53 AM 55.0 °F 50.0 °F 83% 29.91 in 10.0 mi SSW 4.6 mph - N/A   Overcast
4:36 AM 55.4 °F 51.8 °F 88% 29.91 in 10.0 mi SW 5.8 mph - N/A   Overcast
4:53 AM 55.9 °F 51.1 °F 84% 29.92 in 10.0 mi SW 5.8 mph - N/A   Overcast
5:53 AM 57.9 °F 52.0 °F 81% 29.88 in 10.0 mi SSW 6.9 mph - N/A   Overcast
6:36 AM 59.0 °F 53.6 °F 82% 29.88 in 10.0 mi SSW 10.4 mph - N/A   Overcast
6:53 AM 59.0 °F 53.1 °F 81% 29.88 in 8.0 mi South 8.1 mph - N/A   Overcast
7:53 AM 60.1 °F 54.0 °F 80% 29.86 in 10.0 mi South 13.8 mph 19.6 mph N/A   Overcast
8:24 AM 60.8 °F 53.6 °F 77% 29.85 in 10.0 mi South 9.2 mph 18.4 mph N/A   Overcast
8:53 AM 60.1 °F 54.0 °F 80% 29.85 in 10.0 mi SSW 8.1 mph - N/A   Overcast
9:20 AM 60.8 °F 55.4 °F 82% 29.83 in 10.0 mi South 13.8 mph 19.6 mph N/A   Overcast
9:53 AM 64.0 °F 55.0 °F 73% 29.82 in 10.0 mi South 19.6 mph 31.1 mph N/A   Overcast
10:27 AM 66.2 °F 55.4 °F 68% 29.80 in 10.0 mi South 21.9 mph 29.9 mph N/A   Scattered Clouds
10:51 AM 66.2 °F 55.4 °F 68% 29.79 in 10.0 mi South 19.6 mph 28.8 mph N/A   Mostly Cloudy
10:53 AM 66.9 °F 55.9 °F 68% 29.80 in 10.0 mi South 17.3 mph 28.8 mph N/A   Mostly Cloudy
11:53 AM 70.0 °F 55.0 °F 59% 29.76 in 10.0 mi South 23.0 mph 31.1 mph N/A   Mostly Cloudy
12:53 PM 69.1 °F 55.9 °F 63% 29.72 in 10.0 mi South 15.0 mph 25.3 mph N/A   Overcast
1:53 PM 70.0 °F 57.0 °F 63% 29.70 in 10.0 mi South 18.4 mph 27.6 mph N/A   Overcast
2:53 PM 70.0 °F 55.9 °F 61% 29.68 in 10.0 mi South 18.4 mph 31.1 mph N/A   Overcast
3:53 PM 70.0 °F 57.0 °F 63% 29.63 in 10.0 mi South 13.8 mph 24.2 mph N/A   Overcast
4:53 PM 70.0 °F 57.0 °F 63% 29.53 in 10.0 mi South 15.0 mph 28.8 mph N/A   Clear
5:53 PM 70.0 °F 57.9 °F 65% 29.57 in 10.0 mi South 13.8 mph 26.5 mph N/A   Overcast
6:53 PM 70.0 °F 57.9 °F 65% 29.55 in 10.0 mi South 11.5 mph 20.7 mph N/A   Overcast
7:53 PM 69.1 °F 59.0 °F 70% 29.51 in 10.0 mi South 12.7 mph - 0.00 in Rain Light Rain
8:53 PM 66.9 °F 60.1 °F 79% 29.49 in 3.0 mi South 13.8 mph 23.0 mph 0.06 in Rain Rain
9:21 PM 62.6 °F 59.0 °F 88% 29.54 in 2.5 mi WNW 29.9 mph 42.6 mph 0.11 in Rain Rain
9:30 PM 53.6 °F 48.2 °F 82% 29.58 in 1.0 mi West 17.3 mph 32.2 mph 0.39 in Rain Heavy Rain
9:38 PM 51.8 °F 48.2 °F 88% 29.58 in 1.8 mi WNW 20.7 mph 28.8 mph 0.46 in Rain Heavy Rain
9:45 PM 51.8 °F 46.4 °F 82% 29.62 in 2.0 mi WNW 18.4 mph 28.8 mph 0.55 in Rain Heavy Rain
9:53 PM 51.1 °F 46.0 °F 83% 29.64 in 2.5 mi NW 15.0 mph 25.3 mph 0.60 in Rain , Thunderstorm Rain
10:00 PM 51.8 °F 46.4 °F 82% 29.64 in 4.0 mi NNW 15.0 mph - 0.02 in Rain , Thunderstorm Rain
10:14 PM 50.0 °F 44.6 °F 82% 29.66 in 5.0 mi NW 13.8 mph 23.0 mph 0.07 in Rain Rain
10:53 PM 48.0 °F 43.0 °F 83% 29.70 in 5.0 mi NW 3.5 mph - 0.21 in Rain Rain
11:53 PM 48.0 °F 42.1 °F 80% 29.74 in 8.0 mi Variable 5.8 mph - 0.03 in Rain Light Rain